Weather in Thai Nguyen

Vietnam     21°35′42″N   105°50′06″E
temp.,
°C
wind,
m/s
gust,
m/s
humid.,
%
clouds,
%
prec.,
mm/h
press.,
hPa
HPBL,
m
17 april, sat
sat1701:00+23ese1190100 0.1 101357
04:00+22ene1194100 0.1 101231
07:00+22ne1294100 2.4 1015101
10:00+23nne2386100 1.1 1016416
13:00+23ne2286100 1.3 1013397
16:00+23nne238693 0.0 1012361
19:00+22ne1194100 1.4 1013118
22:00+22n129494 1.3 1015104
18 april, sun
sun1801:00+21ene129389 1.4 101378
04:00+21ese1293100 0.1 1012123
07:00+22ese1292100 0.1 1013207
10:00+22ese239398 0.8 1014305
13:00+27sse346894 1.1 10101216
16:00+27ese2375100 0.9 1008169
19:00+25ese2282100 2.7 100939
22:00+23se2490100 0.5 1012142
19 april, mon
mon1901:00+22se129595 2.4 101083
04:00+23se1293100 1.4 101053
07:00+23ese1392100 2.3 1011130
10:00+24ese348676 0.7 1012568
13:00+25e348398 1.8 1009678
16:00+26ese347882 0.7 1007709
19:00+23se369182 2.1 1009182
22:00+22sse3794100 0.4 1011432
20 april, tue
tue2001:00+21sse2596100 1.6 1010366
04:00+21se1296100 0.6 1009183
07:00+22ese139398 0.6 1011236
10:00+23se2388100 0.0 1011479
13:00+26sse347792 0.7 1008955
16:00+27sse457766 0.6 1006605
19:00+24se379049 1.2 1008283
22:00+23sse379477 0.3 1011410
21 april, wed
wed2101:00+23sse269698 0.6 1010378
04:00+22se269898 0.4 1009327
07:00+23ese2396100 0.7 1011257
10:00+24se249199 0.5 1012405
13:00+27se347869 1.6 1009770
16:00+28sse457427 2.1 1007863
19:00+25se379074 2.3 1009210
22:00+24sse399486 0.2 1011522